• In Netherlands
  • List of Countries
  • For 7 days
  • Water Temperature
  • Satellite Maps
  • Weather Map
  • Weather Widgets
  • user-avatar
    Login

    Hourly Weather Solden

    Today, 18 January, Thursday

    Time Temperature Precipitation Wind Pressure Humidity
    00:00 -14°C° 0.2 mm 2 mps 573 mmHg 87%
    01:00 -14°C° 0 mm 2 mps 573 mmHg 87%
    02:00 -15°C° 0.2 mm 2 mps 573 mmHg 86%
    03:00 -15°C° 0.2 mm 2 mps 573 mmHg 86%
    04:00 -15°C° 0.2 mm 2 mps 573 mmHg 86%
    05:00 -15°C° 0.1 mm 2 mps 573 mmHg 85%
    06:00 -15°C° 0.1 mm 2 mps 573 mmHg 84%
    07:00 -14°C° 0 mm 2 mps 573 mmHg 82%
    08:00 -13°C° 0.2 mm 2 mps 573 mmHg 82%
    09:00 -13°C° 0.2 mm 3 mps 574 mmHg 82%
    10:00 -10°C° 0.2 mm 3 mps 574 mmHg 83%
    11:00 -8°C° 0.1 mm 2 mps 575 mmHg 82%
    12:00 -7°C° 0.1 mm 2 mps 575 mmHg 82%
    13:00 -5°C° 0.1 mm 2 mps 575 mmHg 82%
    14:00 -5°C° 0.1 mm 2 mps 575 mmHg 83%
    15:00 -5°C° 0.1 mm 2 mps 574 mmHg 85%
    16:00 -5°C° 0.1 mm 2 mps 574 mmHg 86%
    17:00 -6°C° 0.1 mm 2 mps 574 mmHg 86%
    18:00 -7°C° 0.1 mm 2 mps 573 mmHg 86%
    19:00 -7°C° 0.1 mm 2 mps 573 mmHg 86%
    20:00 -7°C° 0.1 mm 2 mps 573 mmHg 85%
    21:00 -7°C° 0.1 mm 2 mps 573 mmHg 85%
    22:00 -7°C° 0.1 mm 2 mps 573 mmHg 85%
    23:00 -7°C° 0.1 mm 2 mps 573 mmHg 86%

    Tomorrow, 19 January, Friday

    Time Temperature Precipitation Wind Pressure Humidity
    00:00 -7°C° 0.1 mm 2 mps 573 mmHg 86%
    01:00 -7°C° 0.1 mm 2 mps 573 mmHg 86%
    02:00 -7°C° 0.1 mm 2 mps 573 mmHg 86%
    03:00 -7°C° 0.1 mm 2 mps 572 mmHg 86%
    04:00 -7°C° 0.1 mm 2 mps 572 mmHg 87%
    05:00 -7°C° 0.3 mm 2 mps 572 mmHg 88%
    06:00 -7°C° 0.3 mm 2 mps 572 mmHg 89%
    07:00 -7°C° 0.3 mm 2 mps 572 mmHg 90%
    08:00 -7°C° 0.4 mm 2 mps 573 mmHg 90%
    09:00 -6°C° 0.4 mm 2 mps 573 mmHg 90%
    10:00 -6°C° 0.4 mm 2 mps 574 mmHg 90%
    11:00 -6°C° 0.3 mm 2 mps 574 mmHg 89%
    12:00 -5°C° 0.3 mm 2 mps 574 mmHg 88%
    13:00 -5°C° 0.3 mm 2 mps 574 mmHg 86%
    14:00 -6°C° 0.2 mm 2 mps 574 mmHg 86%
    15:00 -7°C° 0.2 mm 2 mps 574 mmHg 86%
    16:00 -8°C° 0.2 mm 2 mps 574 mmHg 86%
    17:00 -9°C° 0.1 mm 2 mps 573 mmHg 86%
    18:00 -12°C° 0.1 mm 2 mps 573 mmHg 86%
    19:00 -14°C° 0.1 mm 2 mps 573 mmHg 86%
    20:00 -14°C° 0 mm 2 mps 573 mmHg 85%
    21:00 -15°C° 0 mm 2 mps 572 mmHg 83%
    22:00 -15°C° 0 mm 2 mps 572 mmHg 82%
    23:00 -16°C° 0 mm 2 mps 573 mmHg 81%

    Day after tomorrow, 20 January, Saturday

    Time Temperature Precipitation Wind Pressure Humidity
    00:00 -16°C° 0 mm 2 mps 573 mmHg 81%
    01:00 -16°C° 0 mm 2 mps 573 mmHg 80%
    02:00 -16°C° 0 mm 2 mps 573 mmHg 80%
    03:00 -15°C° 0 mm 2 mps 573 mmHg 80%
    04:00 -15°C° 0 mm 2 mps 573 mmHg 80%
    05:00 -13°C° 0.1 mm 1 mps 573 mmHg 81%
    06:00 -13°C° 0.1 mm 1 mps 573 mmHg 81%
    07:00 -13°C° 0.1 mm 1 mps 573 mmHg 81%
    08:00 -12°C° 0 mm 1 mps 574 mmHg 81%
    09:00 -11°C° 0 mm 1 mps 574 mmHg 80%
    10:00 -12°C° 0 mm 2 mps 574 mmHg 80%
    11:00 -10°C° 0 mm 2 mps 574 mmHg 78%
    12:00 -9°C° 0 mm 2 mps 574 mmHg 77%
    13:00 -8°C° 0 mm 2 mps 574 mmHg 75%
    14:00 -9°C° 0.1 mm 2 mps 573 mmHg 80%
    15:00 -9°C° 0.1 mm 2 mps 572 mmHg 84%
    16:00 -10°C° 0.1 mm 2 mps 571 mmHg 89%
    17:00 -10°C° 0.7 mm 2 mps 571 mmHg 91%
    18:00 -10°C° 0.7 mm 2 mps 570 mmHg 92%
    19:00 -12°C° 0.7 mm 2 mps 570 mmHg 94%
    20:00 -12°C° 0.8 mm 2 mps 570 mmHg 94%
    21:00 -12°C° 0.8 mm 2 mps 570 mmHg 94%
    22:00 -10°C° 0.8 mm 1 mps 570 mmHg 95%
    23:00 -10°C° 1 mm 2 mps 570 mmHg 94%

    21 January, Sunday

    Time Temperature Precipitation Wind Pressure Humidity
    00:00 -10°C° 1 mm 2 mps 571 mmHg 94%
    01:00 -12°C° 1 mm 3 mps 572 mmHg 94%
    02:00 -13°C° 0.4 mm 3 mps 572 mmHg 91%
    03:00 -14°C° 0.4 mm 3 mps 572 mmHg 89%
    04:00 -14°C° 0.4 mm 3 mps 572 mmHg 87%
    05:00 -15°C° 0.2 mm 3 mps 573 mmHg 87%
    06:00 -16°C° 0.2 mm 3 mps 573 mmHg 87%
    07:00 -16°C° 0.2 mm 3 mps 573 mmHg 86%
    08:00 -16°C° 0.1 mm 3 mps 574 mmHg 85%
    09:00 -15°C° 0.1 mm 3 mps 575 mmHg 83%
    10:00 -15°C° 0.1 mm 3 mps 575 mmHg 81%
    11:00 -14°C° 0 mm 3 mps 576 mmHg 78%
    12:00 -13°C° 0 mm 3 mps 576 mmHg 74%
    13:00 -12°C° 0 mm 3 mps 577 mmHg 71%
    14:00 -10°C° 0.1 mm 2 mps 577 mmHg 75%
    15:00 -10°C° 0.1 mm 2 mps 577 mmHg 78%
    16:00 -10°C° 0.1 mm 2 mps 577 mmHg 82%
    17:00 -12°C° 0.3 mm 2 mps 577 mmHg 84%
    18:00 -12°C° 0.3 mm 2 mps 577 mmHg 85%
    19:00 -12°C° 0.3 mm 2 mps 577 mmHg 86%
    20:00 -12°C° 0.5 mm 2 mps 577 mmHg 87%
    21:00 -9°C° 0.5 mm 1 mps 578 mmHg 87%
    22:00 -9°C° 0.5 mm 1 mps 578 mmHg 88%
    23:00 -8°C° 1 mm 1 mps 578 mmHg 89%

    22 January, Monday

    Time Temperature Precipitation Wind Pressure Humidity
    00:00 -8°C° 1 mm 1 mps 578 mmHg 90%
    01:00 -7°C° 1 mm 1 mps 578 mmHg 91%
    02:00 -7°C° 1.4 mm 1 mps 578 mmHg 91%
    03:00 -7°C° 1.4 mm 2 mps 578 mmHg 91%
    04:00 -7°C° 1.4 mm 2 mps 578 mmHg 91%
    05:00 -7°C° 1.3 mm 2 mps 578 mmHg 91%
    06:00 -6°C° 1.3 mm 2 mps 579 mmHg 91%
    07:00 -6°C° 1.3 mm 2 mps 579 mmHg 91%
    08:00 -5°C° 1.1 mm 2 mps 580 mmHg 90%
    09:00 -4°C° 1.1 mm 2 mps 580 mmHg 90%
    10:00 -4°C° 1.1 mm 2 mps 581 mmHg 90%
    11:00 -3°C° 0.6 mm 2 mps 581 mmHg 91%
    12:00 -3°C° 0.6 mm 2 mps 582 mmHg 92%
    13:00 -2°C° 0.6 mm 2 mps 582 mmHg 94%
    14:00 -2°C° 0.1 mm 2 mps 582 mmHg 94%
    15:00 -2°C° 0.1 mm 2 mps 582 mmHg 93%
    16:00 -3°C° 0.1 mm 2 mps 582 mmHg 93%
    17:00 -3°C° 0.3 mm 2 mps 582 mmHg 91%
    18:00 -4°C° 0.3 mm 2 mps 582 mmHg 90%
    19:00 -4°C° 0.3 mm 2 mps 582 mmHg 88%
    20:00 -5°C° 0.2 mm 2 mps 582 mmHg 88%
    21:00 -5°C° 0.2 mm 2 mps 582 mmHg 88%
    22:00 -5°C° 0.2 mm 2 mps 583 mmHg 87%
    23:00 -5°C° 0.1 mm 2 mps 583 mmHg 88%

    23 January, Tuesday

    Time Temperature Precipitation Wind Pressure Humidity
    00:00 -5°C° 0.1 mm 2 mps 583 mmHg 88%
    01:00 -4°C° 0.1 mm 2 mps 583 mmHg 88%
    02:00 -5°C° 0 mm 2 mps 583 mmHg 89%
    03:00 -5°C° 0 mm 2 mps 583 mmHg 89%
    04:00 -5°C° 0 mm 2 mps 583 mmHg 89%
    05:00 -5°C° 0 mm 2 mps 583 mmHg 89%
    06:00 -5°C° 0 mm 2 mps 584 mmHg 89%
    07:00 -6°C° 0 mm 2 mps 584 mmHg 89%
    08:00 -5°C° 0 mm 2 mps 584 mmHg 89%
    09:00 -4°C° 0 mm 2 mps 585 mmHg 89%
    10:00 -3°C° 0 mm 2 mps 586 mmHg 90%
    11:00 -3°C° 0 mm 2 mps 586 mmHg 92%
    12:00 -2°C° 0 mm 2 mps 586 mmHg 93%
    13:00 -1°C° 0 mm 2 mps 587 mmHg 95%
    14:00 0°C° 0 mm 1 mps 587 mmHg 94%
    15:00 0°C° 0 mm 1 mps 586 mmHg 94%
    16:00 0°C° 0 mm 1 mps 586 mmHg 93%
    17:00 -2°C° 0 mm 1 mps 586 mmHg 90%
    18:00 -5°C° 0 mm 2 mps 586 mmHg 88%
    19:00 -6°C° 0 mm 2 mps 586 mmHg 85%
    20:00 -6°C° 0 mm 2 mps 586 mmHg 84%
    21:00 -6°C° 0 mm 2 mps 586 mmHg 82%
    22:00 -6°C° 0 mm 2 mps 586 mmHg 81%
    23:00 -6°C° 0 mm 1 mps 585 mmHg 79%
    Show more